星链-30593 (STARLINK-30593 )

导读 | 豆包AI

STARLINK-30593是美国星链计划的低轨互联网卫星,于北京时间2023年10月21日08:00发射升空,归属太空探索技术公司(SpaceX)。作为星链星座组网卫星之一,它主要承担全球覆盖高速卫星互联网接入任务,补充低轨星座容量,提升全球偏远区域网络覆盖能力,推进星链星座全球服务布局。

基本信息
目录编号:
58112
目录名称:
STARLINK-30593
国际标识:
2023-161R
轨道中心:
EARTH
卫星名称:
星链-30593
卫星全名:
星链-30593 (STARLINK-30593 )
卫星状态:
在轨 (已飞行922 天)
发射日期:
2023-10-21 UTC
国别 :
美国 (US)
星等 :
--
轨道信息
数据来源 国际轨道数据 AOE轨道数据
星历时间 2026-04-30T04:29:50+0800
22小时前
查看轨道信息
2026-04-26T03:00:00+0800
4天前
查看轨道信息
半长轴 6853.376km 6853.37km
偏心率 0.0001189 0.000119
轨道倾角 53.161° 53.159°
近地点辐角 87.207° 77.956°
升交点赤经 287.980° 306.851°
平近点角 272.906° 211.273°
近地点 474.424km 474.417km
远地点 476.054km 476.049km
周期 94.106分钟 94.106分钟
每日圈数 15.301923 15.301943
详细信息
固有亮度:
5
最大亮度:
0.3
卫星平台:
Starlink v2.0 mini
覆盖范围:
全球
运营商:
太空探索技术公司
运营商所在国:
美国
制造商(研发单位):
太空探索技术公司
制造商所在国:
美国
使用方式:
暂无
卫星简介
星链(Starlink)计划是由太空探索技术公司(SpaceX)提出的一个巨型低轨卫星互联网星座项目,计划在2019年至2024年间在太空搭建由约1.2万颗卫星组成的“星链”网络,其中1584颗将部署在地球上空550千米处的近地轨道,并从2020年开始工作。该卫星仍在工作。
2D轨道图
3D轨道图
轨道高度分析图
轨道倾角分析图
轨道综合分析图
查看轨道综合分析图